Year,Month,Day,Hour,Minute,Value (Times are PST for temperature in C)
2004,10,01,00,00,12.10
2004,10,01,00,01,12.10
2004,10,01,00,02,12.10
2004,10,01,00,03,12.10
2004,10,01,00,04,12.00
2004,10,01,00,05,11.80
2004,10,01,00,06,11.70
2004,10,01,00,07,11.70
2004,10,01,00,08,11.60
2004,10,01,00,09,11.60
2004,10,01,00,10,11.70
2004,10,01,00,11,11.80
2004,10,01,00,12,11.80
2004,10,01,00,13,11.80
2004,10,01,00,14,11.80
2004,10,01,00,15,11.80
2004,10,01,00,16,11.80
2004,10,01,00,17,11.90
2004,10,01,00,18,12.00
2004,10,01,00,19,12.00
2004,10,01,00,20,12.00
2004,10,01,00,21,12.00
2004,10,01,00,22,12.00
2004,10,01,00,23,12.10
2004,10,01,00,24,12.10
2004,10,01,00,25,12.10
2004,10,01,00,26,12.10
2004,10,01,00,27,12.10
2004,10,01,00,28,12.20
2004,10,01,00,29,12.30
2004,10,01,00,30,12.30
2004,10,01,00,31,12.50
2004,10,01,00,32,12.60
2004,10,01,00,33,12.60
2004,10,01,00,34,12.70
2004,10,01,00,35,12.70
2004,10,01,00,36,12.70
2004,10,01,00,37,12.60
2004,10,01,00,38,12.50
2004,10,01,00,39,12.40
2004,10,01,00,40,12.30
2004,10,01,00,41,12.20
2004,10,01,00,42,12.10
2004,10,01,00,43,12.10
2004,10,01,00,44,12.00
2004,10,01,00,45,12.00
2004,10,01,00,46,11.90
2004,10,01,00,47,11.90
2004,10,01,00,48,12.00
2004,10,01,00,49,12.00
2004,10,01,00,50,11.90
2004,10,01,00,51,11.90
2004,10,01,00,52,11.90
2004,10,01,00,53,11.90
2004,10,01,00,54,11.80
2004,10,01,00,55,11.70
2004,10,01,00,56,11.60
2004,10,01,00,57,11.60
2004,10,01,00,58,11.80
2004,10,01,00,59,11.80
2004,10,01,01,00,11.80
2004,10,01,01,01,11.80
2004,10,01,01,02,11.80
2004,10,01,01,03,11.80
2004,10,01,01,04,11.80
2004,10,01,01,05,11.80
2004,10,01,01,06,11.80
2004,10,01,01,07,11.70
2004,10,01,01,08,11.80
2004,10,01,01,09,11.90
2004,10,01,01,10,12.00
2004,10,01,01,11,12.10
2004,10,01,01,12,12.10
2004,10,01,01,13,12.10
2004,10,01,01,14,12.00
2004,10,01,01,15,11.90
2004,10,01,01,16,11.80
2004,10,01,01,17,11.80
2004,10,01,01,18,11.80
2004,10,01,01,19,11.80
2004,10,01,01,20,11.80
2004,10,01,01,21,11.80
2004,10,01,01,22,11.70
2004,10,01,01,23,11.60
2004,10,01,01,24,11.60
2004,10,01,01,25,11.60
2004,10,01,01,26,11.60
2004,10,01,01,27,11.50
2004,10,01,01,28,11.40
2004,10,01,01,29,11.40
2004,10,01,01,30,11.30
2004,10,01,01,31,11.30
2004,10,01,01,32,11.30
2004,10,01,01,33,11.40
2004,10,01,01,34,11.50
2004,10,01,01,35,11.60
2004,10,01,01,36,11.60
2004,10,01,01,37,11.60
2004,10,01,01,38,11.60
2004,10,01,01,39,11.50
2004,10,01,01,40,11.50
2004,10,01,01,41,11.60
2004,10,01,01,42,11.70
2004,10,01,01,43,11.70
2004,10,01,01,44,11.80
2004,10,01,01,45,11.80
2004,10,01,01,46,11.80
2004,10,01,01,47,11.80
2004,10,01,01,48,11.80
2004,10,01,01,49,11.70
2004,10,01,01,50,11.60
2004,10,01,01,51,11.60
2004,10,01,01,52,11.70
2004,10,01,01,53,11.80
2004,10,01,01,54,11.90
2004,10,01,01,55,11.90
2004,10,01,01,56,11.90
2004,10,01,01,57,11.90
2004,10,01,01,58,11.90
2004,10,01,01,59,11.80
2004,10,01,02,00,11.80
2004,10,01,02,01,11.70
2004,10,01,02,02,11.60
2004,10,01,02,03,11.50
2004,10,01,02,04,11.40
2004,10,01,02,05,11.40
2004,10,01,02,06,11.40
2004,10,01,02,07,11.20
2004,10,01,02,08,11.10
2004,10,01,02,09,11.10
2004,10,01,02,10,11.00
2004,10,01,02,11,10.90
2004,10,01,02,12,10.90
2004,10,01,02,13,10.90
2004,10,01,02,14,10.90
2004,10,01,02,15,10.90
2004,10,01,02,16,11.00
2004,10,01,02,17,11.10
2004,10,01,02,18,11.00
2004,10,01,02,19,11.10
2004,10,01,02,20,11.10
2004,10,01,02,21,11.10
2004,10,01,02,22,11.10
2004,10,01,02,23,11.10
2004,10,01,02,24,11.10
2004,10,01,02,25,10.90
2004,10,01,02,26,10.90
2004,10,01,02,27,10.90
2004,10,01,02,28,11.00
2004,10,01,02,29,11.10
2004,10,01,02,30,11.20
2004,10,01,02,31,11.40
2004,10,01,02,32,11.40
2004,10,01,02,33,11.30
2004,10,01,02,34,11.20
2004,10,01,02,35,11.00
2004,10,01,02,36,10.80
2004,10,01,02,37,10.60
2004,10,01,02,38,10.40
2004,10,01,02,39,10.40
2004,10,01,02,40,10.30
2004,10,01,02,41,10.30
2004,10,01,02,42,10.30
2004,10,01,02,43,10.30
2004,10,01,02,44,10.30
2004,10,01,02,45,10.30
2004,10,01,02,46,10.30
2004,10,01,02,47,10.30
2004,10,01,02,48,10.40
2004,10,01,02,49,10.40
2004,10,01,02,50,10.40
2004,10,01,02,51,10.50
2004,10,01,02,52,10.60
2004,10,01,02,53,10.60
2004,10,01,02,54,10.70
2004,10,01,02,55,10.70
2004,10,01,02,56,10.80
2004,10,01,02,57,10.80
2004,10,01,02,58,10.80
2004,10,01,02,59,10.80
2004,10,01,03,00,10.80
2004,10,01,03,01,10.90
2004,10,01,03,02,10.90
2004,10,01,03,03,10.90
2004,10,01,03,04,10.90
2004,10,01,03,05,10.90
2004,10,01,03,06,10.90
2004,10,01,03,07,11.00
2004,10,01,03,08,11.10
2004,10,01,03,09,10.90
2004,10,01,03,10,10.90
2004,10,01,03,11,10.90
2004,10,01,03,12,10.90
2004,10,01,03,13,10.80
2004,10,01,03,14,10.80
2004,10,01,03,15,10.70
2004,10,01,03,16,10.70
2004,10,01,03,17,10.70
2004,10,01,03,18,10.70
2004,10,01,03,19,10.70
2004,10,01,03,20,10.70
2004,10,01,03,21,10.80
2004,10,01,03,22,10.80
2004,10,01,03,23,10.90
2004,10,01,03,24,10.90
2004,10,01,03,25,10.90
2004,10,01,03,26,10.80
2004,10,01,03,27,10.60
2004,10,01,03,28,10.50
2004,10,01,03,29,10.40
2004,10,01,03,30,10.40
2004,10,01,03,31,10.40
2004,10,01,03,32,10.40
2004,10,01,03,33,10.40
2004,10,01,03,34,10.30
2004,10,01,03,35,10.20
2004,10,01,03,36,10.20
2004,10,01,03,37,10.10
2004,10,01,03,38,10.20
2004,10,01,03,39,10.30
2004,10,01,03,40,10.30
2004,10,01,03,41,10.40
2004,10,01,03,42,10.40
2004,10,01,03,43,10.40
2004,10,01,03,44,10.40
2004,10,01,03,45,10.50
2004,10,01,03,46,10.60
2004,10,01,03,47,10.60
2004,10,01,03,48,10.60
2004,10,01,03,49,10.60
2004,10,01,03,50,10.60
2004,10,01,03,51,10.60
2004,10,01,03,52,10.70
2004,10,01,03,53,10.80
2004,10,01,03,54,10.90
2004,10,01,03,55,10.90
2004,10,01,03,56,11.00
2004,10,01,03,57,11.10
2004,10,01,03,58,11.20
2004,10,01,03,59,11.20
2004,10,01,04,00,11.30
2004,10,01,04,01,11.40
2004,10,01,04,02,11.40
2004,10,01,04,03,11.40
2004,10,01,04,04,11.30
2004,10,01,04,05,11.20
2004,10,01,04,06,11.10
2004,10,01,04,07,11.10
2004,10,01,04,08,11.10
2004,10,01,04,09,11.10
2004,10,01,04,10,11.20
2004,10,01,04,11,11.30
2004,10,01,04,12,11.20
2004,10,01,04,13,11.00
2004,10,01,04,14,10.90
2004,10,01,04,15,10.80
2004,10,01,04,16,10.80
2004,10,01,04,17,10.90
2004,10,01,04,18,10.90
2004,10,01,04,19,10.90
2004,10,01,04,20,10.90
2004,10,01,04,21,10.90
2004,10,01,04,22,10.90
2004,10,01,04,23,10.90
2004,10,01,04,24,10.90
2004,10,01,04,25,10.90
2004,10,01,04,26,10.90
2004,10,01,04,27,10.90
2004,10,01,04,28,10.90
2004,10,01,04,29,11.00
2004,10,01,04,30,11.10
2004,10,01,04,31,11.20
2004,10,01,04,32,11.20
2004,10,01,04,33,11.30
2004,10,01,04,34,11.30
2004,10,01,04,35,11.40
2004,10,01,04,36,11.40
2004,10,01,04,37,11.40
2004,10,01,04,38,11.40
2004,10,01,04,39,11.40
2004,10,01,04,40,11.40
2004,10,01,04,41,11.50
2004,10,01,04,42,11.60
2004,10,01,04,43,11.60
2004,10,01,04,44,11.60
2004,10,01,04,45,11.60
2004,10,01,04,46,11.50
2004,10,01,04,47,11.60
2004,10,01,04,48,11.60
2004,10,01,04,49,11.60
2004,10,01,04,50,11.60
2004,10,01,04,51,11.60
2004,10,01,04,52,11.70
2004,10,01,04,53,11.70
2004,10,01,04,54,11.70
2004,10,01,04,55,11.60
2004,10,01,04,56,11.70
2004,10,01,04,57,11.70
2004,10,01,04,58,11.70
2004,10,01,04,59,11.70
2004,10,01,05,00,11.70
2004,10,01,05,01,11.70
2004,10,01,05,02,11.70
2004,10,01,05,03,11.60
2004,10,01,05,04,11.60
2004,10,01,05,05,11.60
2004,10,01,05,06,11.60
2004,10,01,05,07,11.60
2004,10,01,05,08,11.60
2004,10,01,05,09,11.60
2004,10,01,05,10,11.60
2004,10,01,05,11,11.60
2004,10,01,05,12,11.60
2004,10,01,05,13,11.60
2004,10,01,05,14,11.60
2004,10,01,05,15,11.60
2004,10,01,05,16,11.60
2004,10,01,05,17,11.60
2004,10,01,05,18,11.60
2004,10,01,05,19,11.60
2004,10,01,05,20,11.60
2004,10,01,05,21,11.60
2004,10,01,05,22,11.60
2004,10,01,05,23,11.60
2004,10,01,05,24,11.60
2004,10,01,05,25,11.60
2004,10,01,05,26,11.60
2004,10,01,05,27,11.60
2004,10,01,05,28,11.60
2004,10,01,05,29,11.60
2004,10,01,05,30,11.60
2004,10,01,05,31,11.60
2004,10,01,05,32,11.60
2004,10,01,05,33,11.60
2004,10,01,05,34,11.60
2004,10,01,05,35,11.60
2004,10,01,05,36,11.60
2004,10,01,05,37,11.60
2004,10,01,05,38,11.60
2004,10,01,05,39,11.60
2004,10,01,05,40,11.60
2004,10,01,05,41,11.70
2004,10,01,05,42,11.70
2004,10,01,05,43,11.70
2004,10,01,05,44,11.80
2004,10,01,05,45,11.80
2004,10,01,05,46,11.80
2004,10,01,05,47,11.80
2004,10,01,05,48,11.80
2004,10,01,05,49,11.90
2004,10,01,05,50,11.90
2004,10,01,05,51,12.00
2004,10,01,05,52,12.10
2004,10,01,05,53,12.10
2004,10,01,05,54,12.20
2004,10,01,05,55,12.20
2004,10,01,05,56,12.30
2004,10,01,05,57,12.30
2004,10,01,05,58,12.30
2004,10,01,05,59,12.40
2004,10,01,06,00,12.40
2004,10,01,06,01,12.50
2004,10,01,06,02,12.50
2004,10,01,06,03,12.50
2004,10,01,06,04,12.50
2004,10,01,06,05,12.50
2004,10,01,06,06,12.60
2004,10,01,06,07,12.60
2004,10,01,06,08,12.60
2004,10,01,06,09,12.70
2004,10,01,06,10,12.80
2004,10,01,06,11,12.80
2004,10,01,06,12,12.80
2004,10,01,06,13,12.80
2004,10,01,06,14,12.80
2004,10,01,06,15,12.90
2004,10,01,06,16,12.90
2004,10,01,06,17,12.90
2004,10,01,06,18,12.90
2004,10,01,06,19,12.90
2004,10,01,06,20,12.90
2004,10,01,06,21,12.90
2004,10,01,06,22,13.00
2004,10,01,06,23,13.00
2004,10,01,06,24,13.00
2004,10,01,06,25,13.00
2004,10,01,06,26,13.00
2004,10,01,06,27,13.00
2004,10,01,06,28,13.00
2004,10,01,06,29,13.00
2004,10,01,06,30,13.00
2004,10,01,06,31,12.90
2004,10,01,06,32,12.90
2004,10,01,06,33,13.00
2004,10,01,06,34,13.00
2004,10,01,06,35,13.00
2004,10,01,06,36,13.00
2004,10,01,06,37,12.90
2004,10,01,06,38,12.90
2004,10,01,06,39,12.90
2004,10,01,06,40,12.90
2004,10,01,06,41,12.90
2004,10,01,06,42,12.80
2004,10,01,06,43,12.80
2004,10,01,06,44,12.80
2004,10,01,06,45,12.80
2004,10,01,06,46,12.80
2004,10,01,06,47,12.80
2004,10,01,06,48,12.70
2004,10,01,06,49,12.70
2004,10,01,06,50,12.60
2004,10,01,06,51,12.60
2004,10,01,06,52,12.60
2004,10,01,06,53,12.60
2004,10,01,06,54,12.60
2004,10,01,06,55,12.50
2004,10,01,06,56,12.60
2004,10,01,06,57,12.60
2004,10,01,06,58,12.60
2004,10,01,06,59,12.50
2004,10,01,07,00,12.40
2004,10,01,07,01,12.30
2004,10,01,07,02,12.20
2004,10,01,07,03,12.10
2004,10,01,07,04,12.10
2004,10,01,07,05,12.10
2004,10,01,07,06,12.10
2004,10,01,07,07,12.00
2004,10,01,07,08,11.90
2004,10,01,07,09,11.80
2004,10,01,07,10,11.80
2004,10,01,07,11,11.80
2004,10,01,07,12,11.80
2004,10,01,07,13,11.80
2004,10,01,07,14,11.80
2004,10,01,07,15,11.70
2004,10,01,07,16,11.70
2004,10,01,07,17,11.60
2004,10,01,07,18,11.40
2004,10,01,07,19,11.40
2004,10,01,07,20,11.40
2004,10,01,07,21,11.40
2004,10,01,07,22,11.40
2004,10,01,07,23,11.50
2004,10,01,07,24,11.60
2004,10,01,07,25,11.60
2004,10,01,07,26,11.70
2004,10,01,07,27,11.80
2004,10,01,07,28,11.80
2004,10,01,07,29,11.80
2004,10,01,07,30,11.80
2004,10,01,07,31,11.90
2004,10,01,07,32,11.90
2004,10,01,07,33,12.00
2004,10,01,07,34,12.00
2004,10,01,07,35,12.10
2004,10,01,07,36,12.10
2004,10,01,07,37,12.10
2004,10,01,07,38,12.20
2004,10,01,07,39,12.20
2004,10,01,07,40,12.20
2004,10,01,07,41,12.30
2004,10,01,07,42,12.30
2004,10,01,07,43,12.30
2004,10,01,07,44,12.30
2004,10,01,07,45,12.30
2004,10,01,07,46,12.30
2004,10,01,07,47,12.40
2004,10,01,07,48,12.40
2004,10,01,07,49,12.50
2004,10,01,07,50,12.50
2004,10,01,07,51,12.50
2004,10,01,07,52,12.60
2004,10,01,07,53,12.60
2004,10,01,07,54,12.60
2004,10,01,07,55,12.70
2004,10,01,07,56,12.70
2004,10,01,07,57,12.80
2004,10,01,07,58,12.80
2004,10,01,07,59,12.90
2004,10,01,08,00,12.90
2004,10,01,08,01,13.00
2004,10,01,08,02,13.00
2004,10,01,08,03,13.00
2004,10,01,08,04,13.00
2004,10,01,08,05,13.00
2004,10,01,08,06,13.10
2004,10,01,08,07,13.10
2004,10,01,08,08,13.10
2004,10,01,08,09,13.20
2004,10,01,08,10,13.20
2004,10,01,08,11,13.30
2004,10,01,08,12,13.30
2004,10,01,08,13,13.30
2004,10,01,08,14,13.30
2004,10,01,08,15,13.30
2004,10,01,08,16,13.40
2004,10,01,08,17,13.40
2004,10,01,08,18,13.40
2004,10,01,08,19,13.50
2004,10,01,08,20,13.50
2004,10,01,08,21,13.60
2004,10,01,08,22,13.60
2004,10,01,08,23,13.60
2004,10,01,08,24,13.70
2004,10,01,08,25,13.70
2004,10,01,08,26,13.70
2004,10,01,08,27,13.70
2004,10,01,08,28,13.70
2004,10,01,08,29,13.70
2004,10,01,08,30,13.70
2004,10,01,08,31,13.70
2004,10,01,08,32,13.70
2004,10,01,08,33,13.80
2004,10,01,08,34,13.80
2004,10,01,08,35,13.80
2004,10,01,08,36,13.80
2004,10,01,08,37,13.90
2004,10,01,08,38,13.90
2004,10,01,08,39,13.90
2004,10,01,08,40,13.90
2004,10,01,08,41,14.00
2004,10,01,08,42,14.00
2004,10,01,08,43,14.00
2004,10,01,08,44,14.00
2004,10,01,08,45,14.00
2004,10,01,08,46,14.00
2004,10,01,08,47,14.00
2004,10,01,08,48,14.00
2004,10,01,08,49,14.10
2004,10,01,08,50,14.10
2004,10,01,08,51,14.10
2004,10,01,08,52,14.10
2004,10,01,08,53,14.20
2004,10,01,08,54,14.20
2004,10,01,08,55,14.20
2004,10,01,08,56,14.20
2004,10,01,08,57,14.20
2004,10,01,08,58,14.20
2004,10,01,08,59,14.20
2004,10,01,09,00,14.20
2004,10,01,09,01,14.20
2004,10,01,09,02,14.20
2004,10,01,09,03,14.20
2004,10,01,09,04,14.20
2004,10,01,09,05,14.20
2004,10,01,09,06,14.30
2004,10,01,09,07,14.30
2004,10,01,09,08,14.30
2004,10,01,09,09,14.30
2004,10,01,09,10,14.30
2004,10,01,09,11,14.40
2004,10,01,09,12,14.40
2004,10,01,09,13,14.50
2004,10,01,09,14,14.50
2004,10,01,09,15,14.50
2004,10,01,09,16,14.60
2004,10,01,09,17,14.60
2004,10,01,09,18,14.60
2004,10,01,09,19,14.70
2004,10,01,09,20,14.70
2004,10,01,09,21,14.70
2004,10,01,09,22,14.70
2004,10,01,09,23,14.70
2004,10,01,09,24,14.70
2004,10,01,09,25,14.70
2004,10,01,09,26,14.80
2004,10,01,09,27,14.80
2004,10,01,09,28,14.80
2004,10,01,09,29,14.70
2004,10,01,09,30,14.70
2004,10,01,09,31,14.70
2004,10,01,09,32,14.80
2004,10,01,09,33,14.80
2004,10,01,09,34,14.80
2004,10,01,09,35,14.80
2004,10,01,09,36,14.80
2004,10,01,09,37,14.80
2004,10,01,09,38,14.80
2004,10,01,09,39,14.80
2004,10,01,09,40,14.90
2004,10,01,09,41,14.90
2004,10,01,09,42,14.90
2004,10,01,09,43,14.90
2004,10,01,09,44,14.90
2004,10,01,09,45,15.00
2004,10,01,09,46,15.00
2004,10,01,09,47,15.10
2004,10,01,09,48,15.10
2004,10,01,09,49,15.20
2004,10,01,09,50,15.20
2004,10,01,09,51,15.30
2004,10,01,09,52,15.30
2004,10,01,09,53,15.30
2004,10,01,09,54,15.40
2004,10,01,09,55,15.40
2004,10,01,09,56,15.50
2004,10,01,09,57,15.50
2004,10,01,09,58,15.60
2004,10,01,09,59,15.60
2004,10,01,10,00,15.70
2004,10,01,10,01,15.80
2004,10,01,10,02,15.70
2004,10,01,10,03,15.70
2004,10,01,10,04,15.80
2004,10,01,10,05,15.80
2004,10,01,10,06,15.80
2004,10,01,10,07,15.80
2004,10,01,10,08,15.80
2004,10,01,10,09,15.90
2004,10,01,10,10,15.90
2004,10,01,10,11,16.00
2004,10,01,10,12,16.10
2004,10,01,10,13,16.10
2004,10,01,10,14,16.10
2004,10,01,10,15,16.20
2004,10,01,10,16,16.20
2004,10,01,10,17,16.20
2004,10,01,10,18,16.20
2004,10,01,10,19,16.20
2004,10,01,10,20,16.20
2004,10,01,10,21,16.20
2004,10,01,10,22,16.20
2004,10,01,10,23,16.20
2004,10,01,10,24,16.20
2004,10,01,10,25,16.20
2004,10,01,10,26,16.30
2004,10,01,10,27,16.30
2004,10,01,10,28,16.30
2004,10,01,10,29,16.30
2004,10,01,10,30,16.40
2004,10,01,10,31,16.40
2004,10,01,10,32,16.40
2004,10,01,10,33,16.40
2004,10,01,10,34,16.40
2004,10,01,10,35,16.40
2004,10,01,10,36,16.40
2004,10,01,10,37,16.40
2004,10,01,10,38,16.40
2004,10,01,10,39,16.50
2004,10,01,10,40,16.50
2004,10,01,10,41,16.50
2004,10,01,10,42,16.50
2004,10,01,10,43,16.60
2004,10,01,10,44,16.60
2004,10,01,10,45,16.60
2004,10,01,10,46,16.60
2004,10,01,10,47,16.70
2004,10,01,10,48,16.70
2004,10,01,10,49,16.70
2004,10,01,10,50,16.70
2004,10,01,10,51,16.70
2004,10,01,10,52,16.70
2004,10,01,10,53,16.70
2004,10,01,10,54,16.70
2004,10,01,10,55,16.70
2004,10,01,10,56,16.70
2004,10,01,10,57,16.70
2004,10,01,10,58,16.70
2004,10,01,10,59,16.70
2004,10,01,11,00,16.70
2004,10,01,11,01,16.70
2004,10,01,11,02,16.70
2004,10,01,11,03,16.70
2004,10,01,11,04,16.70
2004,10,01,11,05,16.70
2004,10,01,11,06,16.70
2004,10,01,11,07,16.80
2004,10,01,11,08,16.80
2004,10,01,11,09,16.80
2004,10,01,11,10,16.80
2004,10,01,11,11,16.80
2004,10,01,11,12,16.90
2004,10,01,11,13,16.90
2004,10,01,11,14,16.90
2004,10,01,11,15,16.90
2004,10,01,11,16,16.90
2004,10,01,11,17,16.90
2004,10,01,11,18,16.90
2004,10,01,11,19,16.90
2004,10,01,11,20,17.00
2004,10,01,11,21,17.00
2004,10,01,11,22,17.00
2004,10,01,11,23,17.00
2004,10,01,11,24,17.00
2004,10,01,11,25,17.00
2004,10,01,11,26,17.10
2004,10,01,11,27,17.10
2004,10,01,11,28,17.20
2004,10,01,11,29,17.20
2004,10,01,11,30,17.20
2004,10,01,11,31,17.30
2004,10,01,11,32,17.30
2004,10,01,11,33,17.30
2004,10,01,11,34,17.30
2004,10,01,11,35,17.40
2004,10,01,11,36,17.50
2004,10,01,11,37,17.50
2004,10,01,11,38,17.50
2004,10,01,11,39,17.50
2004,10,01,11,40,17.50
2004,10,01,11,41,17.50
2004,10,01,11,42,17.50
2004,10,01,11,43,17.60
2004,10,01,11,44,17.60
2004,10,01,11,45,17.60
2004,10,01,11,46,17.60
2004,10,01,11,47,17.60
2004,10,01,11,48,17.60
2004,10,01,11,49,17.60
2004,10,01,11,50,17.70
2004,10,01,11,51,17.70
2004,10,01,11,52,17.70
2004,10,01,11,53,17.70
2004,10,01,11,54,17.80
2004,10,01,11,55,17.80
2004,10,01,11,56,17.80
2004,10,01,11,57,17.80
2004,10,01,11,58,17.80
2004,10,01,11,59,17.80
2004,10,01,12,00,17.80
2004,10,01,12,01,17.90
2004,10,01,12,02,17.90
2004,10,01,12,03,17.90
2004,10,01,12,04,17.80
2004,10,01,12,05,17.80
2004,10,01,12,06,17.90
2004,10,01,12,07,18.00
2004,10,01,12,08,18.10
2004,10,01,12,09,18.10
2004,10,01,12,10,18.00
2004,10,01,12,11,18.10
2004,10,01,12,12,18.20
2004,10,01,12,13,18.20
2004,10,01,12,14,18.20
2004,10,01,12,15,18.30
2004,10,01,12,16,18.30
2004,10,01,12,17,18.40
2004,10,01,12,18,18.40
2004,10,01,12,19,18.40
2004,10,01,12,20,18.40
2004,10,01,12,21,18.40
2004,10,01,12,22,18.40
2004,10,01,12,23,18.40
2004,10,01,12,24,18.50
2004,10,01,12,25,18.50
2004,10,01,12,26,18.50
2004,10,01,12,27,18.50
2004,10,01,12,28,18.50
2004,10,01,12,29,18.50
2004,10,01,12,30,18.50
2004,10,01,12,31,18.40
2004,10,01,12,32,18.40
2004,10,01,12,33,18.40
2004,10,01,12,34,18.30
2004,10,01,12,35,18.30
2004,10,01,12,36,18.30
2004,10,01,12,37,18.40
2004,10,01,12,38,18.40
2004,10,01,12,39,18.50
2004,10,01,12,40,18.50
2004,10,01,12,41,18.50
2004,10,01,12,42,18.60
2004,10,01,12,43,18.60
2004,10,01,12,44,18.70
2004,10,01,12,45,18.70
2004,10,01,12,46,18.80
2004,10,01,12,47,18.90
2004,10,01,12,48,18.90
2004,10,01,12,49,19.00
2004,10,01,12,50,19.10
2004,10,01,12,51,19.10
2004,10,01,12,52,19.10
2004,10,01,12,53,19.10
2004,10,01,12,54,19.10
2004,10,01,12,55,19.10
2004,10,01,12,56,19.10
2004,10,01,12,57,19.10
2004,10,01,12,58,19.10
2004,10,01,12,59,19.10
2004,10,01,13,00,19.10
2004,10,01,13,01,19.10
2004,10,01,13,02,19.10
2004,10,01,13,03,19.10
2004,10,01,13,04,19.10
2004,10,01,13,05,19.10
2004,10,01,13,06,19.10
2004,10,01,13,07,19.10
2004,10,01,13,08,19.10
2004,10,01,13,09,19.10
2004,10,01,13,10,19.20
2004,10,01,13,11,19.20
2004,10,01,13,12,19.30
2004,10,01,13,13,19.40
2004,10,01,13,14,19.40
2004,10,01,13,15,19.40
2004,10,01,13,16,19.50
2004,10,01,13,17,19.40
2004,10,01,13,18,19.30
2004,10,01,13,19,19.10
2004,10,01,13,20,19.10
2004,10,01,13,21,19.10
2004,10,01,13,22,19.10
2004,10,01,13,23,19.10
2004,10,01,13,24,19.00
2004,10,01,13,25,18.90
2004,10,01,13,26,18.90
2004,10,01,13,27,18.90
2004,10,01,13,28,19.00
2004,10,01,13,29,19.20
2004,10,01,13,30,19.30
2004,10,01,13,31,19.40
2004,10,01,13,32,19.40
2004,10,01,13,33,19.40
2004,10,01,13,34,19.30
2004,10,01,13,35,19.20
2004,10,01,13,36,19.20
2004,10,01,13,37,19.20
2004,10,01,13,38,19.30
2004,10,01,13,39,19.40
2004,10,01,13,40,19.40
2004,10,01,13,41,19.60
2004,10,01,13,42,19.60
2004,10,01,13,43,19.60
2004,10,01,13,44,19.60
2004,10,01,13,45,19.60
2004,10,01,13,46,19.70
2004,10,01,13,47,19.80
2004,10,01,13,48,19.90
2004,10,01,13,49,19.90
2004,10,01,13,50,19.90
2004,10,01,13,51,19.80
2004,10,01,13,52,19.80
2004,10,01,13,53,19.90
2004,10,01,13,54,19.90
2004,10,01,13,55,19.90
2004,10,01,13,56,20.00
2004,10,01,13,57,20.10
2004,10,01,13,58,20.10
2004,10,01,13,59,20.20
2004,10,01,14,00,20.10
2004,10,01,14,01,20.00
2004,10,01,14,02,20.00
2004,10,01,14,03,20.10
2004,10,01,14,04,20.10
2004,10,01,14,05,20.20
2004,10,01,14,06,20.20
2004,10,01,14,07,20.20
2004,10,01,14,08,20.20
2004,10,01,14,09,20.20
2004,10,01,14,10,20.20
2004,10,01,14,11,20.20
2004,10,01,14,12,20.20
2004,10,01,14,13,20.20
2004,10,01,14,14,20.20
2004,10,01,14,15,20.30
2004,10,01,14,16,20.20
2004,10,01,14,17,20.30
2004,10,01,14,18,20.30
2004,10,01,14,19,20.30
2004,10,01,14,20,20.30
2004,10,01,14,21,20.20
2004,10,01,14,22,20.20
2004,10,01,14,23,20.20
2004,10,01,14,24,20.20
2004,10,01,14,25,20.20
2004,10,01,14,26,20.20
2004,10,01,14,27,20.20
2004,10,01,14,28,20.20
2004,10,01,14,29,20.20
2004,10,01,14,30,20.10
2004,10,01,14,31,20.10
2004,10,01,14,32,20.20
2004,10,01,14,33,20.20
2004,10,01,14,34,20.10
2004,10,01,14,35,20.10
2004,10,01,14,36,20.10
2004,10,01,14,37,20.20
2004,10,01,14,38,20.20
2004,10,01,14,39,20.20
2004,10,01,14,40,20.30
2004,10,01,14,41,20.40
2004,10,01,14,42,20.50
2004,10,01,14,43,20.50
2004,10,01,14,44,20.50
2004,10,01,14,45,20.50
2004,10,01,14,46,20.60
2004,10,01,14,47,20.60
2004,10,01,14,48,20.70
2004,10,01,14,49,20.70
2004,10,01,14,50,20.60
2004,10,01,14,51,20.50
2004,10,01,14,52,20.40
2004,10,01,14,53,20.30
2004,10,01,14,54,20.30
2004,10,01,14,55,20.30
2004,10,01,14,56,20.20
2004,10,01,14,57,20.20
2004,10,01,14,58,20.20
2004,10,01,14,59,20.30
2004,10,01,15,00,20.30
2004,10,01,15,01,20.30
2004,10,01,15,02,20.30
2004,10,01,15,03,20.20
2004,10,01,15,04,20.30
2004,10,01,15,05,20.20
2004,10,01,15,06,20.20
2004,10,01,15,07,20.20
2004,10,01,15,08,20.20
2004,10,01,15,09,20.20
2004,10,01,15,10,20.20
2004,10,01,15,11,20.20
2004,10,01,15,12,20.30
2004,10,01,15,13,20.30
2004,10,01,15,14,20.40
2004,10,01,15,15,20.40
2004,10,01,15,16,20.50
2004,10,01,15,17,20.40
2004,10,01,15,18,20.40
2004,10,01,15,19,20.40
2004,10,01,15,20,20.30
2004,10,01,15,21,20.20
2004,10,01,15,22,20.20
2004,10,01,15,23,20.30
2004,10,01,15,24,20.40
2004,10,01,15,25,20.40
2004,10,01,15,26,20.50
2004,10,01,15,27,20.50
2004,10,01,15,28,20.50
2004,10,01,15,29,20.50
2004,10,01,15,30,20.60
2004,10,01,15,31,20.70
2004,10,01,15,32,20.70
2004,10,01,15,33,20.80
2004,10,01,15,34,20.80
2004,10,01,15,35,20.70
2004,10,01,15,36,20.70
2004,10,01,15,37,20.70
2004,10,01,15,38,20.70
2004,10,01,15,39,20.70
2004,10,01,15,40,20.70
2004,10,01,15,41,20.70
2004,10,01,15,42,20.70
2004,10,01,15,43,20.60
2004,10,01,15,44,20.60
2004,10,01,15,45,20.60
2004,10,01,15,46,20.50
2004,10,01,15,47,20.40
2004,10,01,15,48,20.40
2004,10,01,15,49,20.30
2004,10,01,15,50,20.40
2004,10,01,15,51,20.40
2004,10,01,15,52,20.40
2004,10,01,15,53,20.40
2004,10,01,15,54,20.40
2004,10,01,15,55,20.40
2004,10,01,15,56,20.40
2004,10,01,15,57,20.40
2004,10,01,15,58,20.40
2004,10,01,15,59,20.40
2004,10,01,16,00,20.50
2004,10,01,16,01,20.50
2004,10,01,16,02,20.40
2004,10,01,16,03,20.40
2004,10,01,16,04,20.40
2004,10,01,16,05,20.40
2004,10,01,16,06,20.30
2004,10,01,16,07,20.20
2004,10,01,16,08,20.20
2004,10,01,16,09,20.20
2004,10,01,16,10,20.20
2004,10,01,16,11,20.20
2004,10,01,16,12,20.20
2004,10,01,16,13,20.20
2004,10,01,16,14,20.20
2004,10,01,16,15,20.30
2004,10,01,16,16,20.30
2004,10,01,16,17,20.30
2004,10,01,16,18,20.30
2004,10,01,16,19,20.30
2004,10,01,16,20,20.30
2004,10,01,16,21,20.30
2004,10,01,16,22,20.20
2004,10,01,16,23,20.20
2004,10,01,16,24,20.20
2004,10,01,16,25,20.20
2004,10,01,16,26,20.20
2004,10,01,16,27,20.20
2004,10,01,16,28,20.20
2004,10,01,16,29,20.20
2004,10,01,16,30,20.20
2004,10,01,16,31,20.20
2004,10,01,16,32,20.20
2004,10,01,16,33,20.20
2004,10,01,16,34,20.20
2004,10,01,16,35,20.20
2004,10,01,16,36,20.20
2004,10,01,16,37,20.20
2004,10,01,16,38,20.20
2004,10,01,16,39,20.20
2004,10,01,16,40,20.20
2004,10,01,16,41,20.20
2004,10,01,16,42,20.20
2004,10,01,16,43,20.20
2004,10,01,16,44,20.10
2004,10,01,16,45,20.20
2004,10,01,16,46,20.20
2004,10,01,16,47,20.20
2004,10,01,16,48,20.20
2004,10,01,16,49,20.30
2004,10,01,16,50,20.30
2004,10,01,16,51,20.30
2004,10,01,16,52,20.30
2004,10,01,16,53,20.30
2004,10,01,16,54,20.30
2004,10,01,16,55,20.30
2004,10,01,16,56,20.30
2004,10,01,16,57,20.30
2004,10,01,16,58,20.20
2004,10,01,16,59,20.20
2004,10,01,17,00,20.20
2004,10,01,17,01,20.20
2004,10,01,17,02,20.20
2004,10,01,17,03,20.20
2004,10,01,17,04,20.20
2004,10,01,17,05,20.20
2004,10,01,17,06,20.20
2004,10,01,17,07,20.20
2004,10,01,17,08,20.20
2004,10,01,17,09,20.30
2004,10,01,17,10,20.30
2004,10,01,17,11,20.30
2004,10,01,17,12,20.40
2004,10,01,17,13,20.40
2004,10,01,17,14,20.40
2004,10,01,17,15,20.40
2004,10,01,17,16,20.40
2004,10,01,17,17,20.40
2004,10,01,17,18,20.40
2004,10,01,17,19,20.30